| time (UTC) | temp F | wind direction | speed MPH | gust MPH | rain 1hr in | rain 24hr in | rain mn in | humidity % | barometer mb |
| 20260506131520 | 32 | 0.0 | 0.0 | 0.00 | 0.58 | 0.04 | 96 | 1018.1 | |
| 20260506130520 | 32 | 0.0 | 0.0 | 0.00 | 0.58 | 0.04 | 96 | 1017.8 | |
| 20260506125520 | 32 | 0.0 | 0.0 | 0.00 | 0.59 | 0.04 | 96 | 1017.7 | |
| 20260506124520 | 32 | 0.0 | 0.0 | 0.00 | 0.59 | 0.04 | 96 | 1017.7 | |
| 20260506123520 | 32 | 0.0 | 0.0 | 0.00 | 0.60 | 0.04 | 96 | 1017.5 | |
| 20260506122520 | 32 | 0.0 | 0.0 | 0.00 | 0.60 | 0.04 | 96 | 1017.3 | |
| 20260506121540 | 32 | 0.0 | 0.0 | 0.00 | 0.61 | 0.04 | 96 | 1017.2 | |
| 20260506120520 | 33 | 0.0 | 0.0 | 0.00 | 0.62 | 0.04 | 96 | 1017.1 | |
| 20260506115540 | 33 | 0.0 | 0.0 | 0.00 | 0.62 | 0.04 | 96 | 1017.4 | |
| 20260506114520 | 33 | 0.0 | 0.0 | 0.00 | 0.63 | 0.04 | 96 | 1017.3 | |
| 20260506113520 | 33 | 0.0 | 0.0 | 0.01 | 0.63 | 0.04 | 96 | 1017.1 | |
| 20260506112520 | 33 | 0.0 | 0.0 | 0.01 | 0.63 | 0.04 | 97 | 1016.8 | |
| 20260506111520 | 33 | 0.0 | 0.0 | 0.01 | 0.63 | 0.04 | 97 | 1016.8 | |
| 20260506110539 | 33 | 0.0 | 0.0 | 0.01 | 0.63 | 0.04 | 97 | 1016.7 | |
| 20260506105519 | 33 | 0.0 | 0.0 | 0.01 | 0.63 | 0.04 | 97 | 1016.6 | |
| 20260506104520 | 33 | 0.0 | 0.0 | 0.01 | 0.63 | 0.04 | 97 | 1016.4 | |
| 20260506103519 | 33 | 0.0 | 0.0 | 0.00 | 0.62 | 0.03 | 97 | 1016.4 | |
| 20260506102520 | 33 | 0.0 | 0.0 | 0.00 | 0.63 | 0.03 | 97 | 1016.5 | |
| 20260506101520 | 33 | 0.0 | 0.0 | 0.00 | 0.65 | 0.03 | 97 | 1016.3 | |
| 20260506100520 | 33 | 0.0 | 0.0 | 0.00 | 0.68 | 0.03 | 97 | 1016.5 | |
| 20260506095519 | 33 | 0.0 | 0.0 | 0.00 | 0.69 | 0.03 | 97 | 1016.5 | |
| 20260506094600 | 33 | 0.0 | 0.0 | 0.00 | 0.70 | 0.03 | 97 | 1016.5 | |
| 20260506093520 | 33 | 0.0 | 0.0 | 0.00 | 0.71 | 0.03 | 97 | 1016.3 | |
| 20260506092539 | 33 | 0.0 | 0.0 | 0.00 | 0.71 | 0.03 | 97 | 1016.3 | |
| 20260506091600 | 33 | 0.0 | 0.0 | 0.00 | 0.72 | 0.03 | 97 | 1016.2 | |
| 20260506090519 | 33 | 0.0 | 0.0 | 0.01 | 0.72 | 0.03 | 97 | 1016.1 | |
| 20260506085520 | 33 | 0.0 | 0.0 | 0.01 | 0.74 | 0.03 | 97 | 1016.1 | |
| 20260506084519 | 33 | 0.0 | 0.0 | 0.01 | 0.76 | 0.03 | 97 | 1016.1 | |
| 20260506083520 | 33 | 0.0 | 0.0 | 0.01 | 0.78 | 0.03 | 97 | 1016.1 | |
| 20260506082639 | 33 | 0.0 | 0.0 | 0.01 | 0.80 | 0.03 | 97 | 1016.2 | |
| 20260506081519 | 33 | 0.0 | 0.0 | 0.01 | 0.81 | 0.03 | 97 | 1016.2 | |
| 20260506080519 | 33 | 0.0 | 0.0 | 0.00 | 0.81 | 0.02 | 97 | 1016.0 | |
| 20260506073519 | 33 | 0.0 | 0.0 | 0.01 | 0.83 | 0.02 | 97 | 1016.1 | |
| 20260506072519 | 33 | 0.0 | 0.0 | 0.01 | 0.86 | 0.02 | 97 | 1016.0 | |
| 20260506071601 | 33 | 0.0 | 0.0 | 0.01 | 0.89 | 0.02 | 97 | 1015.9 | |
| 20260506070519 | 33 | 0.0 | 0.0 | 0.02 | 0.90 | 0.02 | 97 | 1016.3 | |
| 20260506061519 | 33 | 0.0 | 0.0 | 0.02 | 0.91 | 0.01 | 97 | 1016.4 | |
| 20260506060519 | 33 | 0.0 | 0.0 | 0.01 | 0.90 | 0.00 | 97 | 1016.4 | |
| 20260506050519 | 33 | 0.0 | 0.0 | 0.01 | 0.89 | 0.89 | 97 | 1015.0 | |
| 20260506044519 | 33 | 0.0 | 1.0 | 0.01 | 0.89 | 0.89 | 97 | 1014.8 | |
| 20260506043519 | 33 | 0.0 | 0.0 | 0.01 | 0.89 | 0.89 | 97 | 1014.6 | |
| 20260506042519 | 33 | 0.0 | 0.0 | 0.01 | 0.89 | 0.89 | 97 | 1014.7 | |
| 20260506041519 | 33 | 0.0 | 0.0 | 0.01 | 0.89 | 0.89 | 97 | 1014.6 | |
| 20260506040539 | 33 | 0.0 | 0.0 | 0.00 | 0.88 | 0.88 | 96 | 1014.3 | |
| 20260506035519 | 33 | 0.0 | 0.0 | 0.01 | 0.88 | 0.88 | 97 | 1014.1 | |
| 20260506034519 | 33 | 0.0 | 0.0 | 0.01 | 0.88 | 0.88 | 97 | 1014.1 | |
| 20260506033519 | 34 | 0.0 | 0.0 | 0.01 | 0.88 | 0.88 | 97 | 1014.0 | |
| 20260506032519 | 34 | 0.0 | 0.0 | 0.02 | 0.88 | 0.88 | 97 | 1013.9 | |
| 20260506031519 | 34 | 0.0 | 0.0 | 0.02 | 0.88 | 0.88 | 96 | 1013.6 | |
| 20260506030519 | 34 | 0.0 | 0.0 | 0.02 | 0.88 | 0.88 | 97 | 1013.6 | |
| 20260506025519 | 34 | 0.0 | 0.0 | 0.02 | 0.87 | 0.87 | 97 | 1013.5 | |
| 20260506024519 | 34 | 0.0 | 0.0 | 0.02 | 0.87 | 0.87 | 97 | 1013.2 | |
| 20260506023539 | 34 | 0.0 | 0.0 | 0.02 | 0.87 | 0.87 | 97 | 1012.9 | |
| 20260506022519 | 34 | 0.0 | 0.0 | 0.02 | 0.86 | 0.86 | 97 | 1012.7 | |
| 20260506021519 | 34 | 0.0 | 0.0 | 0.02 | 0.86 | 0.86 | 97 | 1012.5 | |
| 20260506020519 | 34 | 0.0 | 0.0 | 0.02 | 0.86 | 0.86 | 96 | 1011.8 | |
| 20260506015519 | 34 | 0.0 | 0.0 | 0.02 | 0.85 | 0.85 | 96 | 1011.7 | |
| 20260506014519 | 34 | 0.0 | 0.0 | 0.02 | 0.85 | 0.85 | 96 | 1011.6 | |
| 20260506013519 | 34 | 0.0 | 0.0 | 0.02 | 0.85 | 0.85 | 96 | 1011.6 | |
| 20260506012519 | 33 | 0.0 | 0.0 | 0.01 | 0.84 | 0.84 | 96 | 1011.2 | |
| 20260506011519 | 33 | 0.0 | 0.0 | 0.02 | 0.84 | 0.84 | 96 | 1011.0 | |
| 20260506010519 | 33 | 0.0 | 0.0 | 0.02 | 0.84 | 0.84 | 96 | 1011.0 | |
| 20260506005539 | 34 | 0.0 | 0.0 | 0.01 | 0.83 | 0.83 | 96 | 1011.0 | |
| 20260506004519 | 34 | 0.0 | 0.0 | 0.01 | 0.83 | 0.83 | 96 | 1010.9 | |
| 20260506003559 | 33 | 0.0 | 0.0 | 0.01 | 0.83 | 0.83 | 96 | 1010.8 | |
| 20260506002519 | 33 | 0.0 | 0.0 | 0.01 | 0.84 | 0.83 | 96 | 1010.8 | |
| 20260506001519 | 33 | 0.0 | 0.0 | 0.00 | 0.84 | 0.82 | 96 | 1010.7 | |
| 20260506000519 | 33 | 0.0 | 0.0 | 0.00 | 0.87 | 0.82 | 96 | 1010.5 | |
| 20260505235518 | 33 | 0.0 | 1.0 | 0.00 | 0.87 | 0.82 | 96 | 1010.2 | |
| 20260505234519 | 33 | 0.0 | 1.0 | 0.00 | 0.87 | 0.82 | 96 | 1010.1 | |
| 20260505233519 | 33 | 0.0 | 0.0 | 0.00 | 0.87 | 0.82 | 96 | 1010.1 | |
| 20260505232518 | 33 | 0.0 | 0.0 | 0.00 | 0.87 | 0.82 | 96 | 1010.2 | |
| 20260505231519 | 33 | 0.0 | 1.0 | 0.01 | 0.87 | 0.82 | 96 | 1010.1 | |
| 20260505230518 | 33 | 0.0 | 1.0 | 0.01 | 0.87 | 0.82 | 96 | 1010.4 | |
| 20260505225519 | 34 | 0.0 | 1.0 | 0.02 | 0.87 | 0.82 | 96 | 1010.3 | |
| 20260505224519 | 34 | 0.0 | 1.0 | 0.03 | 0.87 | 0.82 | 96 | 1010.2 | |
| 20260505223519 | 34 | 0.0 | 0.0 | 0.04 | 0.87 | 0.82 | 96 | 1010.5 | |
| 20260505222518 | 34 | 0.0 | 2.0 | 0.05 | 0.87 | 0.82 | 96 | 1010.4 | |
| 20260505221519 | 34 | 0.0 | 2.0 | 0.04 | 0.86 | 0.81 | 96 | 1010.3 | |
| 20260505220518 | 34 | 0.0 | 1.0 | 0.04 | 0.86 | 0.81 | 96 | 1010.1 | |
| 20260505215519 | 34 | 0.0 | 4.0 | 0.03 | 0.85 | 0.80 | 96 | 1010.2 | |
| 20260505214539 | 35 | 0.0 | 1.0 | 0.02 | 0.84 | 0.79 | 96 | 1009.9 | |
| 20260505213538 | 34 | 0.0 | 2.0 | 0.01 | 0.83 | 0.78 | 96 | 1010.4 | |
| 20260505212519 | 34 | 0.0 | 1.0 | 0.00 | 0.82 | 0.77 | 96 | 1010.2 | |
| 20260505211539 | 34 | 0.0 | 1.0 | 0.00 | 0.82 | 0.77 | 96 | 1010.1 | |
| 20260505210518 | 34 | 0.0 | 1.0 | 0.00 | 0.82 | 0.77 | 96 | 1010.6 | |
| 20260505205519 | 34 | 0.0 | 1.0 | 0.00 | 0.83 | 0.77 | 95 | 1010.5 | |
| 20260505204519 | 34 | 0.0 | 1.0 | 0.00 | 0.83 | 0.77 | 96 | 1010.5 | |
| 20260505203518 | 34 | 0.0 | 2.0 | 0.00 | 0.83 | 0.77 | 95 | 1010.9 | |
| 20260505202519 | 34 | 0.0 | 0.0 | 0.00 | 0.83 | 0.77 | 96 | 1011.0 | |
| 20260505201518 | 34 | 0.0 | 2.0 | 0.00 | 0.83 | 0.77 | 95 | 1011.0 | |
| 20260505200518 | 34 | 0.0 | 1.0 | 0.00 | 0.83 | 0.77 | 95 | 1010.9 | |
| 20260505195538 | 34 | 0.0 | 1.0 | 0.00 | 0.83 | 0.77 | 95 | 1010.9 | |
| 20260505194518 | 34 | 0.0 | 2.0 | 0.00 | 0.83 | 0.77 | 95 | 1010.9 | |
| 20260505193538 | 34 | 0.0 | 2.0 | 0.00 | 0.83 | 0.77 | 95 | 1011.3 | |
| 20260505192518 | 34 | 0.0 | 2.0 | 0.02 | 0.83 | 0.77 | 95 | 1011.2 | |
| 20260505191521 | 34 | 0.0 | 3.0 | 0.04 | 0.83 | 0.77 | 95 | 1011.1 | |
| 20260505190518 | 34 | 0.0 | 2.0 | 0.06 | 0.83 | 0.77 | 94 | 1011.4 | |
| 20260505185520 | 34 | 0 | 1.0 | 4.0 | 0.09 | 0.83 | 0.77 | 93 | 1011.4 |
| 20260505184521 | 35 | 315 | 1.0 | 3.0 | 0.10 | 0.83 | 0.77 | 92 | 1011.3 |
| 20260505183520 | 37 | 0.0 | 2.0 | 0.12 | 0.83 | 0.77 | 94 | 1011.9 | |
| 20260505182600 | 37 | 0.0 | 0.0 | 0.11 | 0.81 | 0.75 | 95 | 1011.7 | |
| 20260505181540 | 37 | 0.0 | 0.0 | 0.11 | 0.79 | 0.73 | 94 | 1011.7 | |
| 20260505180520 | 37 | 0.0 | 0.0 | 0.10 | 0.77 | 0.71 | 95 | 1012.1 | |
| 20260505175520 | 37 | 0.0 | 0.0 | 0.09 | 0.74 | 0.68 | 95 | 1012.0 | |
| 20260505174520 | 37 | 0.0 | 0.0 | 0.09 | 0.73 | 0.67 | 95 | 1012.0 | |
| 20260505173600 | 37 | 0.0 | 0.0 | 0.09 | 0.71 | 0.65 | 95 | 1012.0 | |
| 20260505172520 | 37 | 0.0 | 0.0 | 0.09 | 0.70 | 0.64 | 94 | 1012.2 | |
| 20260505171540 | 37 | 0.0 | 0.0 | 0.08 | 0.68 | 0.62 | 93 | 1012.4 | |
| 20260505170520 | 37 | 0.0 | 0.0 | 0.08 | 0.67 | 0.61 | 94 | 1012.2 | |
| 20260505165520 | 36 | 0.0 | 0.0 | 0.07 | 0.65 | 0.59 | 95 | 1012.1 | |
| 20260505164520 | 36 | 0.0 | 0.0 | 0.08 | 0.64 | 0.58 | 95 | 1012.0 | |
| 20260505163520 | 36 | 0.0 | 0.0 | 0.07 | 0.62 | 0.56 | 95 | 1011.7 | |
| 20260505162520 | 36 | 0.0 | 0.0 | 0.08 | 0.61 | 0.55 | 95 | 1011.7 | |
| 20260505161540 | 35 | 0.0 | 0.0 | 0.08 | 0.60 | 0.54 | 96 | 1011.6 | |
| 20260505160520 | 35 | 0.0 | 0.0 | 0.08 | 0.59 | 0.53 | 95 | 1011.9 | |
| 20260505152520 | 35 | 0.0 | 0.0 | 0.07 | 0.53 | 0.47 | 96 | 1011.6 | |
| 20260505151520 | 35 | 0.0 | 0.0 | 0.07 | 0.52 | 0.46 | 96 | 1011.7 | |
| 20260505150520 | 35 | 0.0 | 0.0 | 0.07 | 0.51 | 0.45 | 96 | 1011.7 | |
| 20260505140520 | 34 | 0.0 | 0.0 | 0.02 | 0.44 | 0.38 | 96 | 1012.2 |